Cherokee, IA

3:49 AM CDT on May 28, 2017 (GMT -0500)
Cherokee Municipal

Weather History for KCKP - November, 2013

Change the Weather History Date:

Sunday, November 24, 2013

  Actual Average Record
Temperature  
Mean Temperature 20 °F -  
Max Temperature 35 °F 37 °F 64 °F (2011)
Min Temperature 6 °F 17 °F -3 °F (1985)
Degree Days  
Heating Degree Days 44    
Moisture  
Dew Point 9 °F    
Average Humidity 59    
Maximum Humidity 81    
Minimum Humidity 37    
Precipitation  
Precipitation 0.00 in - - ()
Sea Level Pressure  
Sea Level Pressure 30.39 in    
Wind  
Wind Speed 10 mph (SSW)    
Max Wind Speed 25 mph    
Max Gust Speed 30 mph    
Visibility 10 miles    
Events      
Averages and records for this station are not official NWS values.
T = Trace of Precipitation, MM = Missing Value Source: NWS Daily Summary

Daily Weather History Graph

Daily Weather History Graph

Search for Another Location

Airport or City:

Trip Planner

Search our weather history database for the weather conditions in past years. The results will help you decide how hot, cold, wet, or windy it might be!

Date:

Astronomy

Nov. 24, 2013 Rise Set
Actual Time 7:25 AM CST 4:52 PM CST
Civil Twilight 6:54 AM CST 5:23 PM CST
Nautical Twilight 6:19 AM CST 5:58 PM CST
Astronomical Twilight 5:45 AM CST 6:32 PM CST
Moon 11:23 PM CST (11/24) 12:09 PM CST (11/24)
Length of Visible Light 10h 29m
Length of Day
9h 27m
Waning Gibbous, 60% of the Moon is Illuminated
Nov 24
Waning Gibbous
Nov 25
Last Quarter
Dec 2
New
Dec 9
First Quarter
Dec 17
Full

Hourly Weather History & Observations

Time (CST) Temp. Windchill Dew Point Humidity Pressure Visibility Wind Dir Wind Speed Gust Speed Precip Events Conditions
12:15 AM 7.3 °F - 1.8 °F 78% 30.70 in 10.0 mi Calm Calm - N/A   Clear
12:35 AM 7.3 °F 0.5 °F 2.1 °F 79% 30.69 in 10.0 mi South 3.5 mph - N/A   Clear
12:55 AM 6.6 °F - 1.2 °F 79% 30.68 in 10.0 mi Calm Calm - N/A   Clear
1:15 AM 6.3 °F -0.7 °F 1.6 °F 81% 30.67 in 10.0 mi SSW 3.5 mph - N/A   Clear
1:35 AM 7.0 °F 0.1 °F 2.1 °F 80% 30.66 in 10.0 mi South 3.5 mph - N/A   Clear
1:55 AM 10.2 °F 2.0 °F 3.4 °F 74% 30.65 in 10.0 mi South 4.6 mph - N/A   Clear
2:15 AM 9.9 °F 3.4 °F 2.5 °F 72% 30.64 in 10.0 mi SSW 3.5 mph - N/A   Clear
2:35 AM 7.7 °F - 2.7 °F 80% 30.63 in 10.0 mi Calm Calm - N/A   Clear
2:55 AM 9.7 °F 3.2 °F 3.7 °F 77% 30.65 in 10.0 mi South 3.5 mph - N/A   Clear
3:15 AM 10.6 °F 1.0 °F 4.1 °F 75% 30.65 in 10.0 mi SSE 5.8 mph - N/A   Clear
3:35 AM 10.8 °F 0.0 °F 4.1 °F 75% 30.63 in 10.0 mi South 6.9 mph - N/A   Clear
3:55 AM 11.1 °F 0.4 °F 4.1 °F 73% 30.62 in 10.0 mi South 6.9 mph - N/A   Clear
4:15 AM 11.8 °F -0.7 °F 4.5 °F 72% 30.61 in 10.0 mi South 9.2 mph - N/A   Clear
4:35 AM 11.8 °F 1.3 °F 4.5 °F 72% 30.60 in 10.0 mi South 6.9 mph - N/A   Clear
4:55 AM 11.8 °F -0.7 °F 4.5 °F 72% 30.59 in 10.0 mi South 9.2 mph - N/A   Clear
5:15 AM 11.8 °F 0.3 °F 4.8 °F 73% 30.59 in 10.0 mi South 8.1 mph - N/A   Clear
5:35 AM 12.2 °F -0.2 °F 5.0 °F 73% 30.58 in 10.0 mi SSW 9.2 mph - N/A   Clear
5:55 AM 12.9 °F 0.7 °F 5.5 °F 72% 30.57 in 10.0 mi SSW 9.2 mph - N/A   Clear
6:15 AM 13.1 °F 1.8 °F 5.5 °F 72% 30.57 in 10.0 mi SSW 8.1 mph - N/A   Clear
6:35 AM 13.5 °F 0.5 °F 5.5 °F 71% 30.57 in 10.0 mi SSW 10.4 mph - N/A   Clear
6:55 AM 13.3 °F -0.5 °F 5.4 °F 71% 30.56 in 10.0 mi South 11.5 mph - N/A   Clear
7:15 AM 13.1 °F 0.1 °F 5.5 °F 72% 30.55 in 10.0 mi South 10.4 mph - N/A   Clear
7:35 AM 13.5 °F 0.5 °F 5.7 °F 71% 30.55 in 10.0 mi SSW 10.4 mph - N/A   Clear
7:55 AM 13.8 °F 2.7 °F 5.9 °F 71% 30.55 in 10.0 mi South 8.1 mph - N/A   Clear
8:15 AM 14.9 °F 2.3 °F 6.4 °F 69% 30.54 in 10.0 mi South 10.4 mph - N/A   Clear
8:35 AM 16.0 °F 2.3 °F 6.4 °F 66% 30.53 in 10.0 mi South 12.7 mph - N/A   Clear
8:55 AM 17.4 °F 1.9 °F 7.3 °F 65% 30.53 in 10.0 mi SSW 17.3 mph - N/A   Clear
9:15 AM 18.5 °F 3.3 °F 7.0 °F 61% 30.52 in 10.0 mi SSW 17.3 mph 20.7 mph N/A   Clear
9:35 AM 20.1 °F 6.9 °F 7.0 °F 57% 30.51 in 10.0 mi SSW 13.8 mph 23.0 mph N/A   Clear
9:55 AM 21.2 °F 6.4 °F 6.4 °F 53% 30.50 in 10.0 mi SSW 18.4 mph 26.5 mph N/A   Clear
10:15 AM 22.6 °F 9.6 °F 6.3 °F 50% 30.48 in 10.0 mi South 15.0 mph - N/A   Clear
10:35 AM 24.4 °F 11.5 °F 7.7 °F 49% 30.47 in 10.0 mi SSW 16.1 mph 24.2 mph N/A   Clear
10:55 AM 26.2 °F 13.0 °F 7.9 °F 46% 30.46 in 10.0 mi SSW 18.4 mph 25.3 mph N/A   Clear
11:15 AM 27.5 °F 13.2 °F 7.9 °F 44% 30.44 in 10.0 mi SSW 23.0 mph 26.5 mph N/A   Clear
11:35 AM 29.1 °F 17.5 °F 8.8 °F 43% 30.42 in 10.0 mi SSW 16.1 mph 24.2 mph N/A   Clear
11:55 AM 29.8 °F 17.7 °F 8.8 °F 41% 30.39 in 10.0 mi SSW 18.4 mph 27.6 mph N/A   Clear
12:15 PM 31.3 °F 18.9 °F 10.0 °F 41% 30.38 in 10.0 mi SSW 20.7 mph 24.2 mph N/A   Clear
12:35 PM 32.0 °F 19.8 °F 10.2 °F 40% 30.37 in 10.0 mi SSW 20.7 mph 25.3 mph N/A   Clear
12:55 PM 32.9 °F 21.6 °F 11.1 °F 40% 30.34 in 10.0 mi SSW 18.4 mph 26.5 mph N/A   Clear
1:15 PM 33.3 °F 21.8 °F 10.6 °F 39% 30.33 in 10.0 mi SSW 19.6 mph 25.3 mph N/A   Clear
1:35 PM 34.3 °F 24.2 °F 12.4 °F 40% 30.31 in 10.0 mi SSW 16.1 mph 21.9 mph N/A   Clear
1:55 PM 33.8 °F 22.2 °F 11.8 °F 40% 30.30 in 10.0 mi South 20.7 mph 25.3 mph N/A   Clear
2:15 PM 35.1 °F 24.5 °F 12.0 °F 39% 30.29 in 10.0 mi SSW 18.4 mph 25.3 mph N/A   Clear
2:35 PM 35.2 °F 23.8 °F 11.3 °F 37% 30.28 in 10.0 mi SW 21.9 mph 29.9 mph N/A   Clear
2:55 PM 35.6 °F 23.4 °F 11.7 °F 37% 30.27 in 10.0 mi SSW 25.3 mph 28.8 mph N/A   Clear
3:15 PM 35.2 °F 24.1 °F 12.0 °F 38% 30.26 in 10.0 mi SW 20.7 mph 25.3 mph N/A   Clear
3:35 PM 34.9 °F 24.2 °F 12.4 °F 40% 30.25 in 10.0 mi SSW 18.4 mph 24.2 mph N/A   Clear
3:55 PM 34.3 °F 23.5 °F 12.7 °F 41% 30.25 in 10.0 mi SSW 18.4 mph 24.2 mph N/A   Clear
4:15 PM 33.6 °F 22.6 °F 12.6 °F 42% 30.24 in 10.0 mi SSW 18.4 mph 24.2 mph N/A   Clear
4:35 PM 32.7 °F 22.1 °F 12.7 °F 44% 30.24 in 10.0 mi SSW 16.1 mph 26.5 mph N/A   Clear
4:55 PM 31.5 °F 22.9 °F 13.6 °F 48% 30.23 in 10.0 mi South 10.4 mph - N/A   Clear
5:15 PM 30.4 °F 20.5 °F 13.6 °F 50% 30.23 in 10.0 mi South 12.7 mph 17.3 mph N/A   Clear
5:35 PM 30.0 °F 19.1 °F 13.6 °F 51% 30.22 in 10.0 mi South 15.0 mph 20.7 mph N/A   Clear
5:55 PM 29.1 °F 17.5 °F 14.0 °F 53% 30.20 in 10.0 mi South 16.1 mph - N/A   Clear
6:15 PM 28.0 °F 16.1 °F 14.7 °F 57% 30.19 in 10.0 mi South 16.1 mph 21.9 mph N/A   Clear
6:35 PM 27.7 °F 17.1 °F 14.9 °F 59% 30.19 in 10.0 mi South 12.7 mph - N/A   Clear
6:55 PM 28.0 °F 15.7 °F 14.2 °F 56% 30.18 in 10.0 mi South 17.3 mph 21.9 mph N/A   Clear
7:15 PM 27.5 °F 15.0 °F 13.8 °F 56% 30.18 in 10.0 mi South 17.3 mph 21.9 mph N/A   Clear
7:35 PM 26.8 °F 14.1 °F 13.8 °F 58% 30.17 in 10.0 mi South 17.3 mph 21.9 mph N/A   Clear
7:55 PM 26.6 °F 13.1 °F 13.1 °F 57% 30.16 in 10.0 mi South 19.6 mph 26.5 mph N/A   Clear
8:15 PM 26.4 °F 13.2 °F 13.1 °F 57% 30.14 in 10.0 mi SSW 18.4 mph 27.6 mph N/A   Clear
8:35 PM 26.6 °F 13.4 °F 12.9 °F 56% 30.14 in 10.0 mi SSW 18.4 mph 26.5 mph N/A   Clear
8:55 PM 26.4 °F 13.6 °F 13.1 °F 57% 30.15 in 10.0 mi SSW 17.3 mph 21.9 mph N/A   Clear
9:15 PM 26.1 °F 14.0 °F 13.3 °F 59% 30.15 in 10.0 mi SSW 15.0 mph 19.6 mph N/A   Clear
9:35 PM 26.2 °F 14.2 °F 13.6 °F 59% 30.14 in 10.0 mi SSW 15.0 mph - N/A   Clear
9:55 PM 26.4 °F 16.0 °F 13.6 °F 59% 30.14 in 10.0 mi SSW 11.5 mph - N/A   Clear
10:15 PM 26.6 °F 19.1 °F 13.8 °F 59% 30.14 in 10.0 mi SSW 6.9 mph - N/A   Clear
10:35 PM 27.5 °F 17.4 °F 14.5 °F 58% 30.13 in 10.0 mi SSW 11.5 mph - N/A   Clear
10:55 PM 28.9 °F 16.9 °F 14.5 °F 55% 30.11 in 10.0 mi SSW 17.3 mph - N/A   Clear
11:15 PM 29.1 °F 17.1 °F 14.7 °F 55% 30.11 in 10.0 mi SSW 17.3 mph 23.0 mph N/A   Clear
11:35 PM 29.3 °F 18.2 °F 14.7 °F 55% 30.11 in 10.0 mi SSW 15.0 mph 19.6 mph N/A   Scattered Clouds
11:55 PM 29.8 °F 18.0 °F 14.9 °F 54% 30.10 in 10.0 mi SSW 17.3 mph 20.7 mph N/A   Mostly Cloudy